Location: Marcé
(47.5801°N, 0.3280°W)
Time: 15:17:37
(UTC+02:00)

FENGYUN 1C DEB - Pass Details

Date: 08 July 2022
Orbit: 567 x 661 km, 99.1° (Epoch: 16 August)

Event Time Altitude Azimuth Distance (km) Brightness Sun altitude
Rises 23:09:15 0° 358° (N) 2,933 ? -9.5°
Reaches altitude 10° 23:12:52 10° 327° (NNW) 1,993 ? -9.9°
Maximum altitude 23:14:23 12° 306° (NW) 1,866 ? -10.1°
Drops below altitude 10° 23:15:54 10° 285° (WNW) 1,967 ? -10.2°
Sets 23:19:24 0° 253° (WSW) 2,838 ? -10.6°
